EW0920 Weather Reports


time (UTC)temp
F
wind
direction
speed
knots
gust
knots
rain 1hr
in
rain 24hr
in
rain mn
in
humidity
%
barometer
mb
20260505083538 63 12 0.0 0.9 0.00 0.00 0.00 71 1010.6
20260505083035 62 28 0.0 1.7 0.00 0.00 0.00 71 1010.5
20260505082530 62 44 0.9 1.7 0.00 0.00 0.00 73 1010.2
20260505082027 62 325 0.9 1.7 0.00 0.00 0.00 72 1010.2
20260505081524 61 147 1.7 2.6 0.00 0.00 0.00 73 1010.3
20260505081021 62 341 0.0 0.0 0.00 0.00 0.00 75 1010.4
20260505080517 62 25 0.9 2.6 0.00 0.00 0.00 73 1010.2
20260505080014 62 35 0.9 1.7 0.00 0.00 0.00 74 1010.2
20260505075510 61 34 0.0 0.9 0.00 0.00 0.00 77 1010.4
20260505075007 61 321 0.0 0.9 0.00 0.00 0.00 79 1010.2
20260505074504 61 12 0.9 1.7 0.00 0.00 0.00 75 1010.2
20260505074001 61 50 0.9 1.7 0.00 0.00 0.00 74 1010.2
20260505073459 61 24 0.0 0.9 0.00 0.00 0.00 76 1010.0
20260505072956 61 115 2.6 2.6 0.00 0.00 0.00 75 1010.0
20260505072452 61 333 0.9 2.6 0.00 0.00 0.00 75 1010.2
20260505071948 61 24 0.9 1.7 0.00 0.00 0.00 74 1010.0
20260505071444 61 29 0.9 1.7 0.00 0.00 0.00 78 1010.1
20260505070943 60 19 0.0 0.9 0.00 0.00 0.00 80 1009.8
20260505070439 60 315 0.0 0.9 0.00 0.00 0.00 80 1009.7
20260505065935 61 18 0.0 0.9 0.00 0.00 0.00 77 1009.7
20260505065431 60 19 0.0 1.7 0.00 0.00 0.00 80 1009.9
20260505064928 60 11 0.0 0.9 0.00 0.00 0.00 81 1009.7
20260505064425 60 3 0.0 0.9 0.00 0.00 0.00 81 1010.0
20260505063924 60 34 0.9 1.7 0.00 0.00 0.00 83 1010.0
20260505063420 59 208 0.0 0.0 0.00 0.00 0.00 84 1009.9
20260505062916 59 30 0.9 0.9 0.00 0.00 0.00 83 1009.8
20260505062414 59 6 0.0 0.9 0.00 0.00 0.00 85 1010.0
20260505061910 59 349 0.0 0.9 0.00 0.00 0.00 84 1009.9
20260505061409 59 10 0.0 0.9 0.00 0.00 0.00 84 1010.0
20260505060906 60 11 0.0 0.9 0.00 0.00 0.00 83 1010.1
20260505060402 60 8 0.0 0.9 0.00 0.00 0.00 81 1010.3
20260505055858 60 336 0.0 0.9 0.00 0.00 0.00 82 1010.4
20260505055355 61 346 0.0 0.9 0.00 0.00 0.00 82 1010.2
20260505054852 62 346 0.0 0.9 0.00 0.00 0.00 79 1010.4
20260505054349 61 115 0.9 2.6 0.00 0.00 0.00 73 1010.3
20260505053847 62 341 0.0 0.0 0.00 0.00 0.00 80 1010.4
20260505053344 62 332 0.0 0.9 0.00 0.00 0.00 80 1010.4
20260505052841 61 332 0.0 1.7 0.00 0.00 0.00 81 1010.4
20260505052337 61 10 0.0 1.7 0.00 0.00 0.00 77 1010.5
20260505051834 61 11 0.0 0.9 0.00 0.00 0.00 82 1010.3
20260505051332 61 347 0.0 0.9 0.00 0.00 0.00 83 1010.4
20260505050830 61 322 0.9 2.6 0.00 0.00 0.00 78 1010.5
20260505050329 60 0 0.0 1.7 0.00 0.00 0.00 87 1010.4
20260505041752 57 346 0.0 0.0 0.00 0.00 0.00 93 1010.1
20260505041249 57 351 0.0 0.0 0.00 0.00 0.00 93 1010.1
20260505040747 57 351 0.0 0.0 0.00 0.00 0.00 93 1010.2
20260505040244 56 352 0.0 0.0 0.00 0.00 0.00 93 1010.1
20260505035741 56 351 0.0 0.0 0.00 0.00 0.00 93 1010.0
20260505035237 56 352 0.0 0.0 0.00 0.00 0.00 93 1009.9
20260505034734 56 352 0.0 0.0 0.00 0.00 0.00 93 1009.9
20260505034230 56 357 0.0 0.0 0.00 0.00 0.00 93 1010.0
20260505033727 56 352 0.0 0.0 0.00 0.00 0.00 93 1009.8
20260505033225 56 352 0.0 0.0 0.00 0.00 0.00 93 1009.8
20260505032722 56 352 0.0 0.0 0.00 0.00 0.00 93 1009.7
20260505032218 56 352 0.0 0.0 0.00 0.00 0.00 93 1010.0
20260505031715 56 352 0.0 0.0 0.00 0.00 0.00 93 1009.9
20260505031206 56 352 0.0 0.0 0.00 0.00 0.00 93 1009.7
20260505030703 56 352 0.0 0.0 0.00 0.00 0.00 93 1009.9
20260505030159 56 352 0.0 0.0 0.00 0.00 0.00 93 1009.9
20260505025655 56 352 0.0 0.0 0.00 0.00 0.00 93 1009.7
20260505025154 56 352 0.0 0.0 0.00 0.00 0.00 92 1009.8
20260505024651 56 352 0.0 0.0 0.00 0.00 0.00 92 1010.0
20260505024148 57 352 0.0 0.0 0.00 0.00 0.00 92 1009.8
20260505023646 57 352 0.0 0.0 0.00 0.00 0.00 92 1009.8
20260505023143 57 352 0.0 0.0 0.00 0.00 0.00 92 1009.8
20260505022640 57 352 0.0 0.0 0.00 0.00 0.00 92 1009.7
20260505022137 57 359 0.0 0.0 0.00 0.00 0.00 92 1009.9
20260505021634 57 359 0.0 0.0 0.00 0.00 0.00 91 1009.9
20260505021131 57 359 0.0 0.0 0.00 0.00 0.00 91 1009.8
20260505020626 57 359 0.0 0.0 0.00 0.00 0.00 91 1009.8
20260505020122 57 359 0.0 0.0 0.00 0.00 0.00 90 1009.4
20260505015619 57 359 0.0 0.0 0.00 0.00 0.00 90 1009.4
20260505015116 58 359 0.0 0.0 0.00 0.00 0.00 90 1009.4
20260505014612 58 359 0.0 0.0 0.00 0.00 0.00 89 1009.5
20260505014110 58 359 0.0 0.0 0.00 0.00 0.00 89 1009.5
20260505013607 58 359 0.0 0.0 0.00 0.00 0.00 88 1009.7
20260505013104 59 359 0.0 0.0 0.00 0.00 0.00 88 1009.4
20260505012602 59 359 0.0 0.0 0.00 0.00 0.00 87 1009.4
20260505012059 59 359 0.0 0.0 0.00 0.00 0.00 87 1009.3
20260505011554 59 359 0.0 0.0 0.00 0.00 0.00 86 1009.5
20260505011052 60 359 0.0 0.0 0.00 0.00 0.00 86 1009.6
20260505010547 60 359 0.0 0.0 0.00 0.00 0.00 85 1009.4
20260505010044 60 359 0.0 0.0 0.00 0.00 0.00 85 1009.4
20260505005540 60 359 0.0 0.0 0.00 0.00 0.00 84 1009.4
20260505005038 61 359 0.0 0.0 0.00 0.00 0.00 83 1009.3
20260505004534 61 359 0.0 0.0 0.00 0.00 0.00 83 1009.4
20260505004031 62 359 0.0 0.0 0.00 0.00 0.00 82 1009.3
20260505003529 62 359 0.0 0.0 0.00 0.00 0.00 81 1009.2
20260505003027 62 359 0.0 0.0 0.00 0.00 0.00 80 1009.3
20260505002526 63 359 0.0 0.0 0.00 0.00 0.00 79 1009.3
20260505002026 64 359 0.0 0.0 0.00 0.00 0.00 79 1009.2
20260505001522 64 359 0.0 0.0 0.00 0.00 0.00 78 1009.3
20260505001019 65 359 0.0 0.0 0.00 0.00 0.00 77 1009.3
20260505000517 65 359 0.0 0.0 0.00 0.00 0.00 75 1009.3
20260505000014 66 355 0.0 0.0 0.00 0.00 0.00 74 1009.3
20260504235511 66 356 0.0 0.0 0.00 0.00 0.00 74 1009.4
20260504235007 67 356 0.0 0.0 0.00 0.00 0.00 71 1009.4
20260504234505 68 357 0.0 0.9 0.00 0.00 0.00 66 1009.4
20260504234001 68 356 0.0 0.0 0.00 0.00 0.00 66 1009.5
20260504233456 69 21 0.9 0.9 0.00 0.00 0.00 63 1009.5
20260504232954 70 349 0.0 0.0 0.00 0.00 0.00 64 1009.4
20260504232451 70 16 0.0 0.9 0.00 0.00 0.00 61 1009.5
20260504231948 71 13 0.0 0.9 0.00 0.00 0.00 61 1009.5
20260504231444 71 16 0.0 0.9 0.00 0.00 0.00 58 1009.6
20260504230941 72 345 0.0 5.2 0.00 0.00 0.00 55 1009.7
20260504230437 72 359 0.9 1.7 0.00 0.00 0.00 55 1009.8
20260504225937 72 352 0.0 1.7 0.00 0.00 0.00 54 1009.9
20260504225433 72 20 1.7 2.6 0.00 0.00 0.00 54 1009.9
20260504224930 73 75 0.9 1.7 0.00 0.00 0.00 54 1010.0
20260504224427 73 22 0.0 0.9 0.00 0.00 0.00 54 1009.8
20260504223924 72 32 2.6 3.5 0.00 0.00 0.00 54 1010.1
20260504223419 72 11 0.0 0.9 0.00 0.00 0.00 55 1010.1
20260504222915 72 47 0.0 1.7 0.00 0.00 0.00 55 1010.3
20260504222413 72 6 0.0 0.9 0.00 0.00 0.00 55 1010.2
20260504221911 72 350 1.7 1.7 0.00 0.00 0.00 54 1010.3
20260504221408 73 12 0.0 0.0 0.00 0.00 0.00 55 1010.4
20260504220905 73 352 1.7 3.5 0.00 0.00 0.00 54 1010.2
20260504220401 73 313 0.0 1.7 0.00 0.00 0.00 54 1010.4
20260504215859 73 65 0.9 2.6 0.00 0.00 0.00 54 1010.5
20260504215355 73 223 0.9 5.2 0.00 0.00 0.00 53 1010.5
20260504214851 74 11 0.0 1.7 0.00 0.00 0.00 52 1010.4
20260504214348 74 330 0.0 1.7 0.00 0.00 0.00 52 1010.6
20260504213845 73 353 0.9 1.7 0.00 0.00 0.00 52 1010.6
20260504213340 71 224 0.0 0.9 0.00 0.00 0.00 57 1010.6
20260504212838 71 18 0.9 1.7 0.00 0.00 0.00 54 1010.8
20260504212334 72 84 1.7 1.7 0.00 0.00 0.00 54 1010.6
20260504211832 72 67 0.9 3.5 0.00 0.00 0.00 55 1011.0
20260504211328 72 2 0.9 1.7 0.00 0.00 0.00 54 1010.9
20260504210826 72 68 0.0 1.7 0.00 0.00 0.00 56 1010.8
20260504210323 72 167 2.6 3.5 0.00 0.00 0.00 55 1010.7
20260504205820 72 27 0.9 1.7 0.00 0.00 0.00 56 1011.0
20260504205318 72 34 0.0 1.7 0.00 0.00 0.00 54 1010.9
20260504204816 72 335 0.0 2.6 0.00 0.00 0.00 55 1011.1
20260504204314 71 26 0.9 2.6 0.00 0.00 0.00 55 1011.0
20260504203813 71 31 0.9 1.7 0.00 0.00 0.00 55 1010.9
20260504203309 71 347 0.0 2.6 0.00 0.00 0.00 55 1011.0
20260504202804 71 28 0.0 3.5 0.00 0.00 0.00 54 1011.1
20260504202304 72 327 0.9 2.6 0.00 0.00 0.00 56 1010.9
20260504201759 72 14 0.0 2.6 0.00 0.00 0.00 53 1011.0
20260504201256 72 23 1.7 2.6 0.00 0.00 0.00 53 1011.0
20260504200754 72 331 0.9 2.6 0.00 0.00 0.00 53 1010.9
20260504200250 72 8 1.7 5.2 0.00 0.00 0.00 52 1011.0
20260504195746 72 70 0.9 1.7 0.00 0.00 0.00 54 1011.3
20260504195242 72 67 0.9 7.8 0.00 0.00 0.00 52 1011.3
20260504194739 72 355 0.9 2.6 0.00 0.00 0.00 52 1011.1
20260504194236 72 355 0.0 1.7 0.00 0.00 0.00 53 1010.6
20260504193732 72 62 1.7 3.5 0.00 0.00 0.00 52 1010.9
20260504193229 72 280 0.9 1.7 0.00 0.00 0.00 52 1010.6
20260504192728 72 8 0.9 0.9 0.00 0.00 0.00 53 1010.9
20260504192225 72 34 0.0 1.7 0.00 0.00 0.00 55 1011.1
20260504191724 71 123 0.9 1.7 0.00 0.00 0.00 57 1011.2
20260504191220 70 343 0.0 1.7 0.00 0.00 0.00 57 1011.2
20260504190716 70 351 0.0 1.7 0.00 0.00 0.00 56 1011.1
20260504190212 70 19 0.0 2.6 0.00 0.00 0.00 54 1011.1
20260504185709 69 45 0.9 1.7 0.00 0.00 0.00 55 1011.3
20260504185206 69 108 1.7 2.6 0.00 0.00 0.00 55 1011.4
20260504184702 69 57 0.9 1.7 0.00 0.00 0.00 56 1011.3
20260504184157 69 31 2.6 5.2 0.00 0.00 0.00 55 1011.5
20260504183654 69 50 0.9 1.7 0.00 0.00 0.00 57 1011.6
20260504183151 69 300 1.7 1.7 0.00 0.00 0.00 55 1011.6
20260504182648 69 40 0.9 1.7 0.00 0.00 0.00 55 1011.7
20260504182146 70 328 2.6 3.5 0.00 0.00 0.00 54 1011.8
20260504181644 71 320 0.9 7.8 0.00 0.00 0.00 53 1011.7
20260504181141 71 40 0.0 2.6 0.00 0.00 0.00 55 1011.7
20260504180640 71 331 1.7 3.5 0.00 0.00 0.00 53 1011.4
20260504180138 71 62 1.7 5.2 0.00 0.00 0.00 52 1011.6
20260504175635 71 19 0.0 1.7 0.00 0.00 0.00 53 1011.6
20260504175132 72 111 1.7 3.5 0.00 0.00 0.00 51 1011.5
20260504174630 72 15 2.6 6.1 0.00 0.00 0.00 51 1011.8
20260504174126 73 109 1.7 7.8 0.00 0.00 0.00 50 1011.5
20260504173624 73 235 1.7 3.5 0.00 0.00 0.00 51 1011.8
20260504173121 73 141 0.9 2.6 0.00 0.00 0.00 51 1012.0
20260504172617 72 350 0.0 0.9 0.00 0.00 0.00 52 1011.7
20260504172114 72 123 5.2 7.0 0.00 0.00 0.00 50 1011.7
20260504171610 74 69 1.7 8.7 0.00 0.00 0.00 50 1011.7
20260504171108 73 37 0.9 7.0 0.00 0.00 0.00 50 1011.9
20260504170603 73 77 1.7 3.5 0.00 0.00 0.00 49 1011.9
20260504150941 62 117 2.6 3.5 0.00 0.00 0.00 61 1013.3
20260504150438 63 80 0.9 3.5 0.00 0.00 0.00 61 1013.3
20260504140904 60 0 0.0 1.7 0.00 0.00 0.00 67 1014.3
20260504140400 60 249 1.7 3.5 0.00 0.00 0.00 62 1014.0
20260504130325 57 353 0.9 2.6 0.00 0.00 0.00 66 1013.9
20260504120249 52 0 0.9 0.9 0.00 0.00 0.00 70 1014.1
20260504110716 43 2 0.0 0.0 0.00 0.00 0.00 92 1013.8
20260504110212 43 359 0.0 0.0 0.00 0.00 0.00 92 1013.5
20260504100136 43 354 0.0 0.0 0.00 0.00 0.00 91 1014.2